User: anonymous
Location: Vancouver
(49.2500°N, 123.1330°W)
Time: 23:17:41
(UTC-07:00)
Language:

SO-67 - Orbit

View from above orbital plane
View from above orbital plane
View from above satellite
View from above satellite

Ground track
Ground track

The orbit data is extracted from the following two-line orbital elements,

1 35870U 09049F   14242.77945911  .00007958  00000-0  24456-3 0  4629
2 35870 097.1590 261.7190 0002563 140.1002 306.0382 15.33953296275480
Epoch (UTC): 30 August 2014 18:42:25
Eccentricity: 0.0002563
inclination: 97.1590°
perigee height: 462 km
apogee height: 466 km
right ascension of ascending node: 261.7190°
argument of perigee: 140.1002°
revolutions per day: 15.33953296
mean anomaly at epoch: 306.0382°
orbit number at epoch: 27548

The dashed part of the orbit path shows where the satellite is in the earth's shadow,  

DLR